User: anonymous   Login
Location: Bailleul
(50.3375°N, 2.8513°E)
Time: 20:51:05
(UTC+00:00)
Language:

NOAA 16 DEB - Orbit

View from above orbital plane
View from above orbital plane
View from above satellite
View from above satellite

Ground track
Ground track

The orbit data is extracted from the following two-line orbital elements,

1 41653U 00055NS  22021.48460078  .00001353  00000-0  68978-3 0  9996
2 41653  98.8473 116.4597 0010589 215.1572 144.8905 14.17420606297841
Epoch (UTC): 21 January 2022 11:37:49
Eccentricity: 0.0010589
inclination: 98.8473°
perigee height: 826 km
apogee height: 842 km
right ascension of ascending node: 116.4597°
argument of perigee: 215.1572°
revolutions per day: 14.17420606
mean anomaly at epoch: 144.8905°
orbit number at epoch: 29784

The dashed part of the orbit path shows where the satellite is in the earth's shadow,  

DLR